Find Kosmos-1323

NORAD ID: 12978 Int'l Des: 1981-116 Owner: GUKOS Country: SU operational
LEOCIRCULAR

Live Position

Loading 3D Globe...

About Kosmos-1323

Description loading...

Upcoming Passes

Passes for default location (London). Set your location on the main map for personalized predictions.

Altitude History

Loading altitude history...

Two-Line Element Set

1 12978U 81116D 26106.69303250 -.00000018 00000-0 -22948-4 0 9997
2 12978 73.9793 93.5747 0090358 315.6659 219.2525 12.29207198991491
Epoch: Apr 16, 2026 • Age: 20 hours

Current Status

Altitude 1547.9 km
Velocity 7.11 km/s
Sub-Earth Point -62.69°S, 87.98°W
Launch Date Nov 28, 1981
Age 44.3 years
Type other

Technical Details

Classification Payload
Mass 60.00 kg
Dry Mass 60.00 kg
Total Mass 60.00 kg
Length 0.80 m
Diameter 0.80 m
Span 0.80 m
Shape Poly
Manufacturer NPOPM
Bus Type Strela-1 11F625
Phase Status In Orbit
Owner/State GUKOS/SU

Most Searched